Location: Lowman
(44.0835°N, 115.6207°W)
Time: 10:31:54
(UTC+00:00)

Tiangong - Pass Details

Date: 06 December 2022
Orbit: 383 x 386 km, 41.5° (Epoch: 29 January)

Event Time Altitude Azimuth Distance (km) Brightness Sun altitude
Rises 00:40:27 0° 252° (WSW) 2,251 4.2 -6.5°
Reaches altitude 10° 00:42:33 10° 246° (WSW) 1,400 2.5 -6.9°
Maximum altitude 00:45:36 46° 172° (S) 522 -1.3 -7.4°
Drops below altitude 10° 00:48:40 10° 97° (E) 1,407 0.2 -7.9°
Enters shadow 00:49:02 - 95° (E) 1,552 0.4 -8.0°
